Location: Adinfer
(50.1939°N, 2.7087°E)
Time: 13:42:05
(UTC+00:00)

Daily predictions for brighter satellites

Satellite Brightness Start Highest point End
(mag) Time Altitude Azimuth Time Altitude Azimuth Time Altitude Azimuth
SMAP 3.7 16:14:49 10° SE 16:18:59 33° ENE 16:23:10 10° N
H-2A R/B 3.6 16:20:49 10° SE 16:23:56 27° ENE 16:27:05 10° N
ALOS 2.8 16:24:25 10° S 16:29:04 67° WSW 16:33:44 10° NNW
Cosmos 1733 Rocket 3.2 16:24:48 10° N 16:29:07 54° ENE 16:33:25 10° SSE
Meteor 1-28 Rocket 3.9 16:26:22 10° N 16:30:04 55° WNW 16:33:45 10° SSW
RESURS DK-1 2.4 16:26:53 10° SSW 16:30:58 66° ESE 16:35:05 10° NE
Cosmos 1269 Rocket 4.4 16:25:48 10° SSW 16:31:05 69° WNW 16:36:25 10° NNE
COSMOS 2428 2.7 16:28:09 10° SSW 16:33:49 79° ESE 16:39:33 10° NNE
Cosmos 1900 4.3 16:29:13 10° NW 16:34:08 71° NE 16:39:00 10° SE
FENGYUN 3A 4.3 16:30:41 10° S 16:36:03 62° W 16:41:26 10° NNW
Genesis I 3.7 16:33:29 10° NNW 16:37:11 38° NE 16:40:48 10° ESE
Meteor 1-5 Rocket 4.1 16:32:21 10° N 16:37:56 76° ENE 16:43:19 10° SSE
ISS -1.7 16:36:26 10° W 16:39:26 30° SSW 16:42:25 10° SSE
USA 215 3.4 16:33:50 10° ENE 16:40:21 67° SE 16:46:51 10° SW
Cosmos 292 Rocket 4.1 16:36:26 10° NNW 16:41:07 44° ENE 16:45:45 10° SE
Feng Yun 1-1 Rocket 4.2 16:38:10 10° SE 16:43:27 59° ENE 16:48:46 10° N
Cosmos 1666 3.5 16:40:47 10° N 16:44:05 28° ENE 16:47:20 10° SE
Cosmos 1536 3.1 16:42:21 10° N 16:46:14 45° ENE 16:50:05 10° SSE
Cosmos 921 Rocket 3.9 16:42:55 10° N 16:46:32 26° ENE 16:50:11 10° ESE
CZ-4B R/B 3.9 16:43:19 10° S 16:48:34 59° WSW 16:53:58 10° NNW
NOSS 0 Rocket 4.1 16:45:55 10° SSW 16:52:00 59° ESE 16:58:09 10° NE
Cosmos 2278 Rocket 2.5 16:51:03 10° NNW 16:56:43 71° WSW 17:02:20 10° SSE
NOAA 12 4.3 16:51:57 10° SE 16:57:02 49° ENE 17:02:07 10° N
BREEZE-M R/B 3.2 16:50:45 10° W 16:57:23 86° S 17:00:16 15° E
Lacrosse 5 rocket 1.3 16:53:23 10° SW 16:57:42 84° SE 17:00:53 16° ENE
Cosmos 2251 Rocket 3.5 16:53:43 10° S 16:58:58 67° ESE 17:04:13 10° NNE
COBE Rocket 4.0 16:54:55 10° NNE 16:59:25 47° E 17:03:57 10° S
Cosmos 1782 Rocket 4.3 16:57:13 10° N 17:01:02 29° ENE 17:04:49 10° SE
Cosmos 2360 Rocket 3.7 16:56:07 10° WSW 17:01:08 31° NW 17:06:10 10° NNE
SL-4 R/B 1.8 17:00:40 10° W 17:04:24 81° NNW 17:07:13 19° ENE
Okean 2 Rocket 4.5 17:03:29 10° NNE 17:06:33 18° ENE 17:06:56 18° ENE
Sich 1 Rocket 4.5 17:03:18 10° N 17:07:02 26° ENE 17:10:44 10° SE
CZ-4B R/B 3.7 17:04:35 10° N 17:07:30 24° WNW 17:10:22 10° WSW
Envisat 3.1 17:02:37 10° SE 17:07:30 50° ENE 17:12:25 10° N
Aureole 1 Rocket 3.4 17:05:26 10° SSE 17:07:57 24° ESE 17:08:48 22° ENE
Cosmos 2369 Rocket 3.3 17:04:05 10° NNW 17:08:34 24° NE 17:11:13 17° ENE
Cosmos 1980 Rocket 4.5 17:08:10 10° NNW 17:09:27 11° NNW 17:10:43 10° N
NOSS 3-1 (C) 4.5 17:04:33 10° NW 17:10:56 37° NNE 17:16:31 16° E
Cosmos 1862 Rocket 3.5 17:07:03 10° S 17:11:24 85° E 17:15:50 10° N
Cosmos 1689 Rocket 4.1 17:09:52 10° N 17:12:34 29° WNW 17:15:14 10° SW
Cosmos 1743 3.6 17:09:22 10° NNE 17:12:42 27° ENE 17:16:02 10° SE
CZ-4 R/B 2.2 17:09:51 10° SE 17:13:09 27° ENE 17:16:26 10° N
STARLINK-67 3.1 17:11:50 10° WNW 17:14:31 43° N 17:15:28 30° NE
Cosmos 1703 Rocket 4.2 17:10:40 10° SSE 17:14:46 36° E 17:18:22 13° NNE
SL-16 R/B 3.1 17:10:03 10° SSE 17:14:52 29° ESE 17:17:46 19° ENE
USA 267 3.7 17:09:42 10° SE 17:16:11 64° SW 17:22:42 10° WNW
Cosmos 407 Rocket 4.5 17:12:06 10° SSE 17:16:23 27° E 17:18:34 20° ENE
USA 229 DEB 4.4 17:13:43 10° NW 17:20:17 39° NNE 17:24:57 19° E
USA 229 4.4 17:13:49 10° NW 17:20:23 39° NNE 17:25:01 19° E
YAOGAN 6 3.0 17:17:40 10° SE 17:20:58 37° ENE 17:24:20 10° N
Okean O Rocket 3.9 17:17:26 10° SSW 17:21:08 27° W 17:24:53 10° NW
Cosmos 2237 Rocket 2.2 17:18:42 10° SSW 17:24:24 80° ESE 17:29:20 14° NNE
NOSS 3-4 (A) 4.3 17:18:54 10° WSW 17:24:45 44° NNW 17:29:57 15° NE
NOSS 3-4 (C) 4.3 17:19:01 10° WSW 17:24:51 44° NNW 17:30:04 15° NE
BREEZE-M DEB (TANK) 3.3 17:19:42 10° WNW 17:25:15 44° SSW 17:27:31 12° SE
Cosmos 2333 Rocket 3.1 17:19:53 10° SW 17:25:26 48° NW 17:31:03 10° NNE
Cosmos 1812 3.2 17:22:53 10° SSW 17:26:43 60° WNW 17:30:34 10° N
CORIOLIS 4.3 17:22:10 10° SSE 17:27:37 78° WSW 17:33:07 10° NNW
STARLINK-46 2.8 17:25:27 10° W 17:28:04 54° NNW 17:28:33 45° NNE
Cosmos 2242 Rocket 3.6 17:23:51 10° S 17:28:25 81° E 17:33:02 10° NNE
Cosmos 1092 Rocket 4.0 17:22:12 10° S 17:28:25 65° E 17:34:36 10° NNE
PSLV R/B 4.4 17:24:51 10° N 17:28:58 61° WNW 17:33:01 10° SSW
Cosmos 2322 Rocket 4.4 17:26:00 10° WNW 17:29:21 16° NNW 17:32:44 10° N
Cosmos 2219 Rocket 3.2 17:30:26 10° WSW 17:35:45 42° NW 17:41:07 10° NNE
Cosmos 1867 3.6 17:31:23 10° NW 17:36:49 60° NE 17:41:04 16° ESE
Cosmos 1975 4.1 17:34:21 10° N 17:36:24 24° NNE 17:36:24 24° NNE
SL-16 R/B 4.4 17:35:54 10° NW 17:38:42 14° NNW 17:41:31 10° N
BREEZE-M DEB (TANK) 3.1 17:35:30 10° W 17:40:01 43° S 17:41:21 26° SE
Okean-O 2.7 17:36:28 10° SSE 17:40:54 79° WSW 17:45:22 10° NNW
Cosmos 1943 Rocket 2.6 17:37:45 10° NNW 17:43:06 40° NE 17:45:19 28° E
Cosmos 1908 Rocket 3.9 17:39:54 10° NNW 17:44:17 67° W 17:48:36 10° S
FALCON 9 DEB 3.5 17:42:41 10° SW 17:46:04 48° SSE 17:46:30 45° ESE
COSMO-SKYMED 1 2.6 17:47:54 33° NE 17:49:36 54° E 17:53:51 10° S
Ariane Rocket 4.1 17:52:12 26° NNE 17:52:12 26° NNE 17:55:10 10° N
CSL-04 Rocket 3.5 17:50:17 10° SSE 17:55:29 63° ENE 18:00:45 10° N
Cosmos 1980 4.1 17:50:14 10° SW 17:55:49 62° WNW 18:00:05 18° NNE
Cosmos 1441 Rocket 3.6 17:53:43 10° NNW 17:57:31 64° W 18:01:15 10° S
YAOGAN 1 2.5 17:53:27 10° SSE 17:57:44 63° ENE 18:02:02 10° N
Okean 1-7 2.9 17:53:27 10° S 17:57:48 81° E 18:00:20 25° NNE
SeaSat 1 3.8 17:59:06 23° NNE 17:59:06 23° NNE 18:02:04 10° NNW
S3M 4.1 17:52:35 10° N 17:58:40 50° ENE 18:04:36 10° SSE
Uosat 12 SS-18 rocket 4.3 17:53:53 10° NW 17:58:49 52° NE 17:59:27 48° ENE
Cosmos 2297 4.0 17:56:12 10° NNW 18:01:53 69° WSW 18:07:30 10° SSE
ATLAS 2AS CENTAUR R/B 4.0 17:56:03 10° W 18:03:22 36° NNW 18:07:59 20° NNE
CZ-4 R/B 4.4 17:59:23 10° SSE 18:03:33 84° WSW 18:07:45 10° NNW
Exosat Rocket 4.5 18:00:33 10° SW 18:05:25 44° NW 18:09:16 16° NNE
Cosmos 1428 Rocket 4.4 18:01:30 10° S 18:07:40 79° E 18:13:56 10° NNE
Cosmos 1190 Rocket 3.9 18:05:26 10° S 18:10:33 63° ESE 18:11:38 50° ENE
Cosmos 1553 Rocket 3.9 18:04:48 10° N 18:11:12 77° E 18:17:36 10° SSE
STARLINK-52 3.8 18:08:55 10° SW 18:11:47 50° SSW 18:11:47 50° SSW
CSL-04 Debris 4.1 18:07:47 10° SSE 18:13:15 86° ENE 18:18:43 10° NNW
SKYMED 3 4.5 18:12:19 41° NNE 18:13:48 89° WNW 18:18:09 10° SSW
COSMOS 2428 4.5 18:14:03 10° W 18:18:45 26° NW 18:22:47 13° N
STARLINK-29 4.0 18:17:00 10° WSW 18:19:41 48° SW 18:19:41 48° SW
USA 215 3.5 18:20:48 37° NE 18:23:23 62° NNW 18:29:48 10° W
Meteor 1-18 Rocket 4.1 18:18:45 10° S 18:24:28 86° E 18:27:35 28° NNE
Cosmos 921 Rocket 4.3 18:20:57 10° NW 18:24:57 40° WSW 18:29:00 10° S
Cosmos 489 Rocket 4.5 18:18:58 10° NNW 18:25:22 85° WSW 18:31:45 10° SSE
Cosmos 2026 Rocket 4.1 18:20:35 10° SSW 18:26:36 70° WNW 18:32:42 10° N
STARLINK-60 4.5 18:24:34 10° WSW 18:26:47 38° WSW 18:26:47 38° WSW
Meteor 2-9 Rocket 4.2 18:24:33 10° NNW 18:30:29 89° E 18:36:17 10° S
Cosmos 614 Rocket 4.0 18:27:12 10° SSW 18:32:18 76° WNW 18:33:24 54° N
Lacrosse 5 4.2 18:31:28 10° S 18:31:51 11° SSE 18:31:51 11° SSE
Cosmos 1174 4.3 18:31:37 10° SW 18:35:56 65° WSW 18:35:56 65° WSW
NOAA 11 4.2 18:31:35 10° SSE 18:37:03 81° WSW 18:42:35 10° NNW
Lacrosse 5 rocket 2.6 18:33:19 10° W 18:36:32 33° NW 18:36:32 33° NW
SKYMED 2 4.2 18:36:34 40° NNW 18:37:44 53° WNW 18:41:57 10° SSW
SL-4 R/B 3.2 18:40:17 10° WNW 18:42:49 39° WNW 18:42:49 39° WNW
Okean 2 Rocket 3.6 18:40:38 10° NNW 18:50:23 - S 18:44:32 57° WNW
Okean 1 4.4 18:42:02 10° SSW 18:45:30 43° W 18:45:30 43° W
CZ-4 R/B 3.1 18:44:40 10° SSW 18:48:07 30° W 18:51:34 10° NNW
Cosmos 1140 Rocket 3.6 18:46:46 10° SSW 18:51:25 70° WSW 18:51:25 70° WSW
Cosmos 2369 Rocket 2.1 18:47:40 10° NNW 18:53:04 81° NW 18:53:04 81° NW
Cosmos 407 Rocket 4.2 18:53:00 10° SW 18:58:05 52° WNW 18:58:49 48° NNW
SL-16 R/B 2.7 18:53:06 10° SW 18:58:41 56° NW 18:59:41 49° NNW
NOSS 3-1 (C) 3.9 18:55:25 10° NW 19:02:47 84° NE 19:03:58 68° ESE
Cosmos 1655 Rocket 4.1 18:59:06 10° SSW 19:05:25 73° WNW 19:07:36 43° N
Cosmos 2237 Rocket 4.0 19:04:26 10° W 19:09:06 25° NW 19:11:10 21° N
Cosmos 2333 Rocket 4.5 19:07:53 10° WNW 19:11:14 15° NNW 19:13:15 13° N
USA 229 DEB 3.7 19:04:47 10° NW 19:12:02 87° SW 19:12:26 81° SSE
USA 229 3.7 19:04:54 10° NW 19:12:08 87° SW 19:12:30 82° SSE
NOSS 3-1 (A) 3.9 19:10:09 10° NW 19:17:06 74° NNE 19:17:06 74° NNE
Cosmos 1943 Rocket 3.2 19:21:36 10° NW 19:26:55 43° WSW 19:26:55 43° WSW
Cosmos 2344 4.3 19:18:52 10° NW 19:28:19 89° SW 19:31:31 57° SE
ATLAS 2AS CENTAUR R/B 4.2 19:49:39 10° NW 19:55:25 30° N 19:55:25 30° N
USA 215 4.4 20:08:09 36° NW 20:08:09 36° NW 20:12:09 10° WNW
